Wind_Speed
29 28 27 28 27 27 27 26 25 24 24 23 23 23 23 23 23 23 23 22 22 23 23 24 24 24 25 25 25 25 25 25 25 25 24 24 24 25 24 24 24 24 24
31 30 30 29 29 29 28 28 27 27 26 26 26 25 24 24 24 25 24 24 24 24 25 25 25 25 26 26 26 27 26 26 26 26 26 25 25 25 26 26 26 26 26
32 32 32 31 31 30 30 30 29 28 28 28 27 26 26 26 26 26 26 26 26 26 26 26 26 26 27 27 27 27 28 28 28 28 27 27 28 28 28 28 27 27 28
34 34 33 32 32 32 32 31 31 30 30 29 28 28 28 27 27 28 28 28 28 28 27 27 28 27 27 28 28 28 29 28 29 29 29 30 29 29 29 29 28 29 29
35 35 35 34 34 34 33 33 32 32 32 31 31 31 30 30 29 29 29 29 30 30 29 29 28 28 28 29 29 29 30 30 30 30 31 31 31 31 31 31 30 30 30
36 36 36 36 35 35 34 34 34 34 33 33 33 32 32 31 31 31 31 31 31 31 30 30 30 30 30 30 30 30 31 31 32 32 33 33 33 33 33 33 34 33 32
38 38 37 37 37 36 36 36 35 35 34 34 34 33 33 33 33 33 33 33 33 33 32 32 31 31 31 31 32 32 32 32 33 33 34 35 35 35 35 36 36 36 36
40 40 39 38 38 38 37 37 37 36 36 35 35 35 34 34 34 34 34 34 34 34 33 33 33 32 33 33 33 33 33 34 34 34 35 35 36 36 37 38 38 38 38
42 42 41 40 40 40 39 39 38 38 37 36 36 36 36 35 35 35 36 35 35 35 35 35 34 34 34 35 35 35 35 35 36 36 37 37 37 38 38 39 40 39 39
44 43 43 42 42 42 41 40 39 39 39 38 38 38 38 37 37 37 37 37 37 37 37 36 37 37 37 37 36 37 37 37 37 38 38 39 39 39 40 40 41 41 41
46 45 45 44 43 43 42 42 41 40 39 39 39 39 39 39 38 38 37 38 38 39 39 39 39 39 38 38 38 38 38 39 39 40 41 41 41 42 42 41 42 42 42
46 47 46 45 45 44 43 43 42 42 41 41 40 41 41 41 40 39 39 39 40 40 40 40 40 40 40 40 40 40 40 41 41 42 42 43 44 44 44 43 43 43 43
48 47 47 46 46 46 45 45 44 43 43 43 42 42 43 42 41 41 41 41 41 41 42 42 42 42 42 42 42 42 42 43 43 43 44 44 45 45 45 45 45 45 45
49 49 49 48 48 48 47 46 46 45 45 44 44 44 43 43 43 43 43 42 43 43 43 43 43 44 44 44 44 44 44 45 45 45 45 45 46 46 46 46 46 47 47
48 49 50 49 48 48 48 47 47 47 46 46 45 46 45 44 44 44 45 45 44 44 45 45 45 46 46 46 46 46 46 46 46 47 46 47 47 47 47 47 47 47 47
49 50 50 50 50 49 49 49 49 48 47 47 47 46 47 46 46 47 47 46 46 47 47 47 47 47 46 46 47 48 48 48 48 48 47 47 48 48 48 48 48 48 49
50 50 50 51 51 50 50 50 49 49 48 48 48 48 48 48 47 48 48 48 48 48 48 48 48 48 48 48 49 49 50 49 49 49 49 49 48 48 49 49 49 50 50
50 50 50 50 51 51 51 51 50 50 50 49 49 49 49 48 49 49 49 49 49 49 48 48 48 49 49 50 50 50 50 50 49 49 49 49 49 50 51 51 51 51 51
49 50 49 49 50 50 51 50 51 51 51 50 49 49 50 50 50 49 49 50 50 49 49 49 49 49 50 50 50 50 50 51 51 51 50 51 51 52 52 52 52 52 53
49 49 48 49 49 49 49 49 50 49 49 49 49 49 50 50 50 51 51 51 51 51 51 51 51 50 50 50 50 50 51 52 53 54 53 53 53 53 53 54 53 53 53
48 49 49 49 49 49 48 48 49 50 49 49 50 50 50 51 51 51 52 52 52 52 52 52 52 51 51 52 52 53 53 53 54 54 53 53 54 54 54 54 54 54 54
48 47 48 49 49 49 49 49 50 50 50 50 51 52 52 52 52 53 52 52 53 53 53 53 53 52 52 53 54 54 54 54 54 54 55 55 55 55 55 55 55 54 54
47 47 47 48 49 49 50 49 50 51 51 51 51 52 52 52 53 52 52 53 53 53 53 52 52 53 53 54 55 55 55 55 55 55 55 55 55 55 55 55 55 55 55
47 47 46 47 48 48 49 50 50 51 51 52 53 54 53 53 52 52 51 51 52 52 53 53 53 53 54 54 55 55 55 55 55 55 56 55 56 56 56 55 55 55 55
45 46 46 46 47 47 48 49 50 51 51 52 52 53 53 52 51 51 51 50 50 51 52 52 53 53 53 54 55 55 55 55 55 55 55 55 56 56 56 56 56 56 56
44 46 47 46 46 47 48 48 50 51 51 51 52 53 53 53 52 51 51 51 51 51 51 51 51 52 52 53 53 54 54 55 55 55 55 55 55 56 55 56 56 56 56
Wind_Direction
243 244 245 246 247 249 251 251 252 252 253 254 256 257 257 259 260 259 260 261 262 261 261 261 261 261 261 261 261 261 260 259 259 260 262 263 265 266 267 267 268 268 268
244 245 245 246 248 249 251 253 254 254 256 257 258 260 260 261 262 262 262 262 263 263 263 263 263 263 262 261 260 260 260 260 259 260 262 263 265 266 267 268 269 269 269
245 246 246 247 248 249 251 252 254 255 255 257 258 259 260 260 261 262 262 262 262 262 262 262 263 264 263 261 261 261 261 261 260 261 262 264 266 267 267 268 268 269 270
245 246 246 248 249 250 251 252 253 254 255 257 258 259 259 260 260 261 262 262 262 263 264 263 264 264 263 261 261 262 261 260 260 262 263 264 265 267 267 267 268 269 269
245 247 248 249 250 251 251 252 253 254 255 256 258 259 259 259 260 261 262 262 263 263 264 263 264 263 263 262 262 262 262 262 262 262 264 264 264 265 266 267 269 270 270
246 247 249 250 251 251 251 252 254 255 256 256 257 259 259 259 260 261 261 262 263 263 263 263 263 263 263 263 263 263 263 263 263 263 263 264 265 265 267 268 270 271 271
246 247 248 250 251 252 253 253 254 256 256 257 258 259 259 260 261 261 262 263 263 264 263 263 263 263 264 264 264 264 265 265 265 264 265 265 266 266 267 269 271 272 271
246 247 248 249 251 252 254 254 255 255 256 258 258 258 259 260 260 261 262 263 264 264 263 263 263 264 265 265 266 266 266 266 266 266 266 266 267 267 268 269 271 271 271
246 247 248 249 250 252 253 254 255 255 257 258 258 258 259 259 260 261 262 264 265 264 263 263 263 264 265 266 266 266 266 266 266 267 267 268 268 269 270 270 270 270 271
246 247 248 249 251 252 252 254 255 256 257 258 259 259 260 260 262 262 263 264 264 264 264 264 264 264 265 266 266 266 267 267 266 267 268 269 269 270 271 271 271 270 270
246 247 248 249 250 251 252 253 254 256 257 258 259 260 260 261 262 263 264 264 264 264 264 264 264 264 265 265 265 266 266 267 267 268 268 269 270 270 271 270 270 270 270
246 247 248 249 249 251 253 254 255 256 257 258 259 259 260 261 262 263 264 265 264 264 264 264 264 265 265 265 265 265 266 267 268 268 269 270 271 270 270 270 270 271 271
247 247 248 249 250 252 254 255 255 256 257 258 259 260 261 261 262 263 265 265 264 264 265 265 265 265 265 265 265 266 267 267 268 269 270 270 271 271 271 271 271 270 270
248 248 249 250 251 252 253 255 255 256 257 258 259 259 260 261 263 264 265 265 265 264 264 264 265 265 265 266 267 267 268 268 269 270 270 271 271 271 271 271 271 271 271
249 249 249 250 252 253 253 254 254 256 257 258 259 259 259 261 263 264 265 266 266 265 264 264 265 266 266 267 267 268 268 269 270 270 271 271 271 271 271 271 271 270 271
250 250 250 250 251 252 253 254 255 257 257 258 260 261 261 262 263 264 265 266 265 265 265 266 266 267 266 267 267 268 269 269 269 270 270 271 271 272 272 272 271 270 271
250 250 249 250 251 252 252 254 256 258 257 258 260 261 262 262 263 265 265 265 266 265 266 266 266 267 267 267 268 268 268 269 269 270 270 270 271 272 272 272 272 271 271
249 250 250 251 251 252 253 253 255 257 258 259 260 261 262 262 263 264 265 265 266 266 267 267 267 268 268 268 268 268 268 268 269 269 270 270 271 271 272 272 272 272 271
250 250 250 251 252 253 253 253 254 256 258 259 260 261 262 263 264 264 265 265 266 266 267 267 268 268 268 268 268 268 268 269 269 269 270 270 271 271 272 273 273 272 271
251 250 249 250 252 252 252 253 254 255 257 258 260 262 263 263 264 264 265 266 266 266 267 267 268 268 268 267 268 268 268 269 269 269 270 270 271 272 273 273 273 272 271
250 250 250 251 252 252 252 253 255 255 256 258 260 261 262 263 264 265 265 265 266 266 266 266 267 267 267 268 268 268 269 270 270 270 270 271 271 272 273 273 273 272 271
250 250 252 252 252 252 252 253 254 257 258 258 260 261 262 263 264 265 265 265 266 265 265 266 266 267 268 268 268 268 269 270 270 270 271 271 271 272 273 272 272 272 271
251 252 252 253 253 253 253 254 255 256 258 258 259 261 261 262 264 264 264 264 265 265 265 265 266 267 268 268 269 269 270 270 270 270 270 271 272 273 273 273 273 273 271
252 252 253 254 254 255 255 255 256 257 258 258 259 260 261 263 263 264 265 264 264 265 266 267 268 269 269 270 271 271 271 271 271 271 271 271 271 272 273 273 273 273 271
252 253 254 255 256 257 257 257 257 258 259 260 260 260 262 263 264 265 265 265 265 266 267 268 269 270 270 270 270 271 271 271 271 271 271 272 272 273 273 273 273 272 271
253 253 254 255 257 258 258 258 258 258 259 260 261 262 262 263 263 264 264 265 266 266 267 268 269 270 270 270 270 271 271 271 272 272 272 272 272 272 273 272 272 272 271
Height
5788 5790 5792 5794 5796 5797 5798 5799 5801 5802 5802 5803 5804 5805 5806 5806 5807 5807 5807 5808 5808 5809 5809 5810 5810 5811 5812 5813 5814 5814 5815 5816 5817 5818 5819 5819 5819 5820 5820 5820 5821 5821 5821
5782 5784 5786 5787 5789 5791 5792 5793 5795 5796 5797 5797 5798 5800 5801 5801 5801 5801 5802 5803 5803 5803 5804 5804 5805 5805 5806 5807 5808 5808 5809 5810 5811 5812 5813 5813 5814 5814 5815 5815 5815 5815 5815
5775 5777 5779 5781 5783 5784 5786 5787 5788 5790 5790 5791 5792 5793 5794 5795 5795 5796 5796 5797 5797 5798 5798 5798 5799 5799 5800 5801 5801 5802 5803 5804 5804 5806 5807 5807 5808 5808 5808 5808 5809 5809 5808
5768 5770 5772 5774 5775 5777 5779 5780 5782 5783 5784 5785 5786 5787 5788 5788 5789 5790 5790 5791 5791 5792 5792 5793 5793 5793 5793 5794 5795 5795 5796 5797 5798 5799 5800 5800 5801 5801 5801 5802 5802 5802 5802
5760 5762 5764 5766 5768 5770 5771 5773 5774 5776 5777 5778 5779 5780 5781 5781 5782 5783 5784 5784 5785 5785 5786 5786 5787 5787 5787 5787 5788 5788 5789 5790 5790 5791 5792 5793 5793 5794 5794 5794 5795 5794 5794
5752 5755 5757 5759 5760 5762 5764 5765 5767 5768 5769 5770 5771 5772 5773 5774 5775 5776 5777 5777 5778 5778 5779 5779 5780 5780 5780 5781 5781 5781 5782 5782 5783 5784 5784 5785 5785 5786 5786 5786 5786 5786 5786
5744 5746 5749 5751 5752 5754 5756 5757 5759 5760 5761 5763 5764 5764 5765 5766 5767 5768 5769 5770 5771 5771 5772 5772 5773 5773 5773 5773 5774 5774 5774 5775 5775 5775 5776 5777 5777 5777 5778 5778 5778 5778 5778
5735 5738 5740 5742 5744 5746 5747 5749 5750 5752 5753 5754 5756 5757 5758 5759 5759 5760 5761 5762 5763 5763 5764 5764 5765 5765 5765 5766 5766 5766 5766 5767 5767 5767 5767 5768 5768 5769 5769 5769 5769 5769 5769
5726 5728 5731 5733 5735 5737 5739 5740 5742 5743 5744 5746 5747 5748 5749 5751 5751 5752 5753 5754 5754 5755 5756 5756 5757 5757 5757 5758 5758 5758 5758 5758 5758 5758 5758 5758 5759 5759 5759 5759 5759 5759 5759
5715 5718 5721 5723 5725 5727 5729 5731 5732 5734 5735 5736 5737 5739 5740 5741 5743 5744 5744 5745 5745 5746 5747 5747 5748 5748 5748 5749 5749 5749 5749 5749 5749 5749 5749 5749 5749 5749 5749 5749 5749 5749 5749
5705 5707 5710 5713 5715 5717 5719 5721 5723 5724 5726 5727 5728 5729 5730 5731 5733 5734 5735 5735 5736 5737 5737 5738 5738 5739 5739 5739 5739 5739 5739 5739 5739 5739 5739 5739 5739 5739 5739 5738 5738 5738 5738
5694 5696 5699 5702 5704 5706 5708 5710 5712 5714 5715 5717 5718 5719 5720 5721 5723 5724 5725 5725 5726 5726 5727 5727 5728 5728 5729 5729 5729 5729 5729 5729 5729 5728 5728 5728 5727 5727 5727 5727 5727 5727 5727
5683 5685 5688 5691 5693 5695 5698 5699 5701 5703 5704 5706 5707 5709 5710 5711 5712 5713 5714 5715 5715 5716 5716 5717 5717 5717 5718 5718 5718 5718 5718 5718 5717 5717 5717 5716 5716 5715 5715 5715 5715 5715 5715
5671 5674 5676 5679 5682 5684 5686 5688 5690 5692 5693 5694 5696 5697 5699 5700 5701 5702 5703 5704 5705 5705 5706 5706 5705 5706 5706 5707 5707 5707 5707 5706 5706 5705 5705 5704 5704 5703 5703 5703 5702 5702 5702
5658 5661 5664 5667 5669 5672 5674 5676 5678 5680 5682 5683 5685 5686 5687 5688 5689 5691 5692 5692 5693 5694 5695 5695 5694 5694 5694 5695 5695 5695 5694 5694 5694 5693 5692 5692 5691 5691 5690 5690 5689 5689 5689
5645 5648 5651 5654 5657 5659 5662 5664 5666 5668 5669 5671 5673 5674 5676 5677 5678 5679 5679 5680 5680 5681 5682 5682 5682 5682 5682 5682 5682 5682 5682 5681 5681 5680 5680 5679 5679 5678 5678 5677 5677 5676 5676
5632 5635 5638 5641 5644 5647 5649 5652 5654 5655 5657 5659 5661 5662 5663 5665 5666 5667 5667 5668 5668 5668 5669 5669 5669 5669 5669 5669 5669 5668 5668 5668 5667 5667 5666 5666 5665 5665 5665 5664 5663 5663 5663
5619 5622 5625 5628 5630 5633 5636 5639 5641 5643 5645 5647 5648 5650 5651 5652 5653 5654 5655 5655 5655 5655 5656 5656 5656 5656 5656 5655 5655 5655 5655 5654 5654 5653 5653 5652 5652 5651 5651 5650 5650 5649 5649
5606 5609 5612 5615 5617 5620 5623 5625 5628 5630 5632 5634 5635 5637 5638 5639 5640 5641 5641 5642 5642 5642 5642 5643 5643 5642 5642 5641 5641 5641 5640 5640 5640 5639 5639 5638 5637 5637 5636 5636 5635 5634 5634
5593 5595 5599 5602 5604 5607 5609 5612 5614 5617 5619 5620 5622 5623 5625 5626 5627 5627 5628 5628 5628 5628 5628 5629 5629 5628 5628 5627 5627 5627 5626 5626 5625 5624 5624 5624 5623 5622 5622 5621 5621 5620 5619
5580 5583 5586 5588 5591 5593 5596 5599 5601 5603 5605 5607 5608 5610 5611 5612 5612 5613 5614 5614 5614 5614 5614 5614 5614 5614 5614 5613 5613 5612 5612 5611 5610 5609 5609 5609 5608 5608 5606 5606 5605 5604 5604
5567 5569 5572 5575 5577 5580 5583 5585 5588 5589 5591 5593 5595 5596 5597 5597 5598 5599 5599 5599 5600 5600 5600 5600 5600 5600 5600 5598 5597 5597 5596 5596 5597 5596 5594 5594 5593 5592 5591 5590 5589 5589 5589
5554 5556 5559 5562 5564 5567 5569 5571 5574 5576 5577 5579 5580 5581 5582 5583 5583 5584 5584 5584 5584 5584 5585 5585 5585 5585 5584 5583 5582 5582 5581 5580 5580 5579 5579 5579 5577 5576 5576 5575 5574 5573 5573
5541 5543 5546 5549 5551 5553 5555 5557 5559 5561 5563 5564 5566 5567 5568 5568 5568 5569 5569 5569 5569 5569 5569 5570 5570 5570 5568 5567 5566 5566 5565 5564 5564 5563 5563 5563 5561 5561 5560 5560 5558 5558 5558
5528 5531 5533 5535 5538 5540 5541 5543 5545 5547 5548 5550 5551 5552 5552 5553 5554 5554 5555 5555 5555 5555 5554 5554 5554 5553 5552 5551 5550 5549 5549 5548 5549 5548 5547 5547 5546 5545 5544 5544 5543 5542 5542
5516 5518 5520 5522 5524 5526 5527 5529 5531 5533 5535 5536 5536 5537 5538 5538 5538 5538 5539 5540 5540 5540 5540 5539 5538 5537 5536 5535 5535 5534 5533 5533 5532 5533 5532 5531 5530 5529 5529 5529 5527 5527 5526